User: anonymous   Login
Location: Lawrence Hall of Science
(37.8785°N, 122.2415°W)
Time: 00:36:21
(UTC-07:00)
Language:

ARGOS - Orbit

View from above orbital plane
View from above orbital plane
View from above satellite
View from above satellite

Ground track
Ground track

The orbit data is extracted from the following two-line orbital elements,

1 25634U 99008A   14304.15796659  .00000074  00000-0  56041-4 0  3036
2 25634 098.7460 010.0355 0011293 094.1899 318.5217 14.19182223812298
Epoch (UTC): 31 October 2014 03:47:28
Eccentricity: 0.0011293
inclination: 98.7460°
perigee height: 820 km
apogee height: 836 km
right ascension of ascending node: 10.0355°
argument of perigee: 94.1899°
revolutions per day: 14.19182223
mean anomaly at epoch: 318.5217°
orbit number at epoch: 81229

The dashed part of the orbit path shows where the satellite is in the earth's shadow,  

DLR